星链-4309 (STARLINK-4309 )

导读 | 星芒AI

STARLINK-4309 是 SpaceX Starlink 卫星互联网项目中的第 4309 颗卫星。该卫星属于“星链”计划的低轨卫星群,旨在为全球用户提供高速互联网服务。它运行在约 550 公里的近地轨道上,采用先进的通信技术,支持宽带数据传输。Starlink 计划部署数万颗卫星,以实现全球覆盖,尤其关注偏远和网络基础设施薄弱地区。STARLINK-4309 的发射和运行有助于提升 Starlink 网络的稳定性和覆盖范围。

基本信息
目录编号:
53066
目录名称:
STARLINK-4309
国际标识:
2022-077Z
轨道中心:
EARTH
卫星名称:
星链-4309
卫星全名:
星链-4309 (STARLINK-4309 )
卫星状态:
在轨 (已飞行1259 天)
发射日期:
2022-07-11 UTC
国别 :
美国 (US)
星等 :
--
轨道信息
数据来源 国际轨道数据 AOE轨道数据
星历时间 2025-12-20T19:47:47+0800
18小时前
查看轨道信息
2025-12-17T17:00:00+0800
3天前
查看轨道信息
半长轴 6941.134km 6941.113km
偏心率 0.0001836 0.0001797
轨道倾角 97.601° 97.601°
近地点辐角 87.919° 87.324°
升交点赤经 172.685° 169.632°
平近点角 272.225° 0.091°
近地点 561.722km 561.73km
远地点 564.272km 564.226km
周期 95.919分钟 95.919分钟
每日圈数 15.012644 15.012711
详细信息
固有亮度:
5
最大亮度:
2.5
卫星平台:
Starlink v1.5
覆盖范围:
全球
运营商:
太空探索技术公司
运营商所在国:
美国
制造商(研发单位):
太空探索技术公司
制造商所在国:
美国
使用方式:
暂无
卫星简介
星链(Starlink)计划是由太空探索技术公司(SpaceX)提出的一个巨型低轨卫星互联网星座项目,计划在2019年至2024年间在太空搭建由约1.2万颗卫星组成的“星链”网络,其中1584颗将部署在地球上空550千米处的近地轨道,并从2020年开始工作。该卫星仍在工作。
2D轨道图
3D轨道图
轨道高度分析图
轨道倾角分析图
轨道综合分析图
查看轨道综合分析图